This is the latest recevied weather packets stored in our database for station/object IZ4UFQ-10. If no packets are shown the sender has not sent any weather packets the latest 1 day(s).
| Time | Temp. | Humidity | Pressure | Rain* | Wind** | Luminosity | Snow |
|---|---|---|---|---|---|---|---|
| 1778051850 | 13.89° C | 96% | 1009.5 hPa | 2.54 mm | - | 148 W/m² | - |
| 1778051550 | 13.89° C | 96% | 1009.6 hPa | 2.79 mm | - | 130 W/m² | - |
| 1778051250 | 13.89° C | 96% | 1009.6 hPa | 3.56 mm | - | 97 W/m² | - |
| 1778050649 | 13.89° C | 96% | 1009.6 hPa | 4.32 mm | - | 90 W/m² | - |
| 1778050349 | 13.89° C | 96% | 1009.6 hPa | 4.57 mm | - | 86 W/m² | - |
| 1778050049 | 13.89° C | 96% | 1009.6 hPa | 4.57 mm | - | 86 W/m² | - |
| 1778049448 | 13.89° C | 95% | 1009.6 hPa | 5.08 mm | - | 53 W/m² | - |
| 1778049148 | 13.33° C | 95% | 1009.7 hPa | 5.08 mm | - | 62 W/m² | - |
| 1778048547 | 13.33° C | 95% | 1009.9 hPa | 4.83 mm | - | 23 W/m² | - |
| 1778048247 | 13.33° C | 95% | 1009.8 hPa | 4.57 mm | - | 14 W/m² | - |
| 1778047947 | 13.33° C | 95% | 1009.8 hPa | 4.32 mm | - | 11 W/m² | - |
| 1778047346 | 13.33° C | 95% | 1009.6 hPa | 3.56 mm | - | 7 W/m² | - |
| 1778047046 | 13.33° C | 95% | 1009.7 hPa | 3.05 mm | - | 9 W/m² | - |
| 1778046445 | 13.33° C | 95% | 1009.8 hPa | 3.3 mm | - | 14 W/m² | - |
| 1778046145 | 13.33° C | 95% | 1009.8 hPa | 3.05 mm | - | 16 W/m² | - |
| 1778045845 | 13.33° C | 95% | 1009.8 hPa | 2.79 mm | - | 16 W/m² | - |
| 1778045544 | 13.33° C | 95% | 1009.7 hPa | 3.05 mm | - | 18 W/m² | - |
| 1778045244 | 13.33° C | 95% | 1009.7 hPa | 3.05 mm | - | 19 W/m² | - |
| 1778044944 | 13.33° C | 95% | 1009.7 hPa | 3.81 mm | - | 21 W/m² | - |
| 1778044643 | 13.33° C | 95% | 1009.9 hPa | 4.32 mm | - | 16 W/m² | - |
| 1778044043 | 13.33° C | 95% | 1010.1 hPa | 5.59 mm | - | 9 W/m² | - |
| 1778043442 | 13.33° C | 95% | 1010.1 hPa | 6.86 mm | - | 9 W/m² | - |
| 1778043142 | 13.33° C | 95% | 1010.3 hPa | 6.86 mm | - | 7 W/m² | - |
| 1778042842 | 13.33° C | 95% | 1010.3 hPa | 7.11 mm | - | 5 W/m² | - |
| 1778042241 | 13.33° C | 95% | 1010.1 hPa | 6.86 mm | - | 0 W/m² | - |
* Rain latest hour (hover to see other rain measurements)
** Current wind speed in m/s (hover to see current wind gust speed)